Weather home | Your neighborhood | Marine | Radar | Hurricane | Almanac

Daily weather history


Statistical History for Friday, May 19, 2017

St. Petersburg Airport, FL


  Actual Average Record
Temperature
Mean Temperature -  
Max Temperature 86 °F 96 °F (2017)
Min Temperature 71 °F 59 °F (2011)
Cooling Degree Days    
Growing Degree Days 34 (Base - )  
Moisture
Dew Point   
Average Humidity    
Maximum Humidity    
Minimum Humidity    
Precipitation
Precipitation - - ()
Wind
Wind Speed   
Max Wind Speed   
Max Gust Speed   
Visibility   
Events   
Averages and records for this station are not official NWS values.
Key: T is trace of precipitation, MM is missing value
Source: NWS Daily Summary
Seasonal Weather Averages
Time(EDT)TemperatureDew PointHumidity Sea Level Pressure Visibility Wind DirectionWind SpeedGust SpeedPrecipitationEventsConditions
12:02 AM 80.1 °F 69.1 °F 69% 30.05 in 10.0 miles East 19.6 mph 24.2 mph N/A   Scattered Clouds
12:53 AM 79.0 °F 70.0 °F 74% 30.04 in 10.0 miles ESE 15.0 mph 23.0 mph N/A   Mostly Cloudy
1:53 AM 78.1 °F 70.0 °F 76% 30.02 in 10.0 miles East 13.8 mph 18.4 mph N/A   Mostly Cloudy
2:10 AM 78.1 °F 70.0 °F 76% 30.01 in 10.0 miles ESE 13.8 mph - N/A   Scattered Clouds
2:53 AM 78.1 °F 71.1 °F 79% 29.99 in 10.0 miles ESE 15.0 mph 20.7 mph N/A   Scattered Clouds
3:53 AM 77.0 °F 71.1 °F 82% 29.97 in 10.0 miles ESE 12.7 mph - N/A   Clear
4:53 AM 77.0 °F 72.0 °F 84% 29.98 in 10.0 miles ESE 15.0 mph - N/A   Partly Cloudy
5:53 AM 77.0 °F 72.0 °F 84% 29.99 in 10.0 miles ESE 12.7 mph - N/A   Partly Cloudy
6:53 AM 77.0 °F 72.0 °F 84% 30.02 in 10.0 miles ESE 9.2 mph - N/A   Scattered Clouds
7:21 AM 78.1 °F 73.0 °F 84% 30.03 in 10.0 miles ESE 8.1 mph - N/A   Mostly Cloudy
7:53 AM 78.1 °F 73.0 °F 84% 30.03 in 10.0 miles ESE 9.2 mph - N/A   Scattered Clouds
8:53 AM 80.1 °F 73.0 °F 79% 30.04 in 10.0 miles ESE 13.8 mph - N/A   Scattered Clouds
9:53 AM 82.9 °F 72.0 °F 69% 30.05 in 10.0 miles ESE 10.4 mph - N/A   Mostly Cloudy
10:53 AM 86.0 °F 72.0 °F 63% 30.04 in 10.0 miles ESE 15.0 mph - N/A   Mostly Cloudy
11:09 AM 88.0 °F 72.0 °F 59% 30.04 in 10.0 miles ESE 13.8 mph 21.9 mph N/A   Mostly Cloudy
11:53 AM 88.0 °F 70.0 °F 55% 30.03 in 10.0 miles ESE 16.1 mph - N/A   Mostly Cloudy
12:53 PM 90.0 °F 70.0 °F 52% 30.01 in 10.0 miles ESE 12.7 mph - N/A   Scattered Clouds
1:53 PM 91.9 °F 69.1 °F 47% 29.99 in 10.0 miles ESE 6.9 mph 18.4 mph N/A   Scattered Clouds
2:53 PM 91.9 °F 70.0 °F 48% 29.96 in 10.0 miles SE 11.5 mph 20.7 mph N/A   Scattered Clouds
3:53 PM 93.9 °F 66.0 °F 40% 29.94 in 10.0 miles SE 12.7 mph - N/A   Mostly Cloudy
4:53 PM 89.1 °F 73.0 °F 59% 29.94 in 10.0 miles WNW 12.7 mph - N/A   Mostly Cloudy
5:53 PM 86.0 °F 73.0 °F 65% 29.96 in 10.0 miles WSW 11.5 mph - 0.00 in Rain Light Rain
6:05 PM 84.9 °F 73.0 °F 67% 29.97 in 10.0 miles SSW 16.1 mph - 0.00 in Rain , Thunderstorm Light Thunderstorms and Rain
6:17 PM 80.1 °F 73.9 °F 81% 29.98 in 5.0 miles SSW 17.3 mph - 0.02 in Rain , Thunderstorm Thunderstorms and Rain
6:26 PM 78.1 °F 73.9 °F 87% 29.97 in 2.0 miles SW 12.7 mph - 0.06 in Rain , Thunderstorm Thunderstorms and Rain
6:36 PM 77.0 °F 73.9 °F 90% 29.96 in 1.0 miles West 8.1 mph - 0.23 in Rain , Thunderstorm Heavy Thunderstorms and Rain
6:53 PM 77.0 °F 73.9 °F 90% 29.98 in 3.0 miles WSW 4.6 mph - 0.32 in Rain , Thunderstorm Light Thunderstorms and Rain
7:01 PM 77.0 °F 73.9 °F 90% 29.97 in 7.0 miles West 8.1 mph - 0.00 in Rain , Thunderstorm Light Rain
7:53 PM 79.0 °F 73.9 °F 84% 29.99 in 10.0 miles NE 3.5 mph - 0.00 in Thunderstorm Overcast
8:19 PM 78.1 °F 73.9 °F 87% 30.01 in 1.8 miles SSE 11.5 mph - 0.16 in Rain , Thunderstorm Heavy Rain
8:25 PM 77.0 °F 73.9 °F 90% 30.01 in 0.8 miles ESE 8.1 mph - 0.44 in Rain , Thunderstorm Heavy Rain
8:32 PM 75.9 °F 73.9 °F 94% 30.01 in 1.8 miles NE 6.9 mph - 0.75 in Rain , Thunderstorm Heavy Rain
8:53 PM 75.0 °F 73.0 °F 94% 30.02 in 1.8 miles NE 6.9 mph - 1.46 in Rain , Thunderstorm Rain
8:55 PM 75.0 °F 72.0 °F 90% 30.02 in 3.0 miles NE 6.9 mph - 0.01 in Rain , Thunderstorm Rain
9:02 PM 75.0 °F 72.0 °F 90% 30.02 in 1.8 miles Calm Calm - 0.01 in Rain , Thunderstorm Light Rain
9:04 PM 75.0 °F 72.0 °F 90% 30.02 in 6.0 miles Calm Calm - 0.01 in Thunderstorm Overcast
9:34 PM 75.0 °F 73.0 °F 94% 30.02 in 10.0 miles Calm Calm - 0.01 in   Mostly Cloudy
9:53 PM 75.9 °F 73.0 °F 91% 30.02 in 9.0 miles Calm Calm - 0.01 in   Scattered Clouds
10:53 PM 75.9 °F 73.0 °F 91% 30.03 in 10.0 miles Calm Calm - 0.00 in   Scattered Clouds
11:53 PM 77.0 °F 73.9 °F 90% 30.01 in 10.0 miles ESE 9.2 mph - N/A   Clear
ADVERTISEMENT
Enter city or zip code to search weather conditions:


  • 490 First Avenue South
  • St. Petersburg, FL 33701
  • 727-893-8111